Time,TemperatureF,DewpointF,PressureIn,WindDirection,WindDirectionDegrees,WindSpeedMPH,WindSpeedGustMPH,Humidity,HourlyPrecipIn,Conditions,Clouds,dailyrainin,SoftwareType,DateUTC
2013-09-18 00:00:00,52.0,45.1,29.23,East,90,0.0,0.0,77,0.00,,,0.00,WUHU216WMR100,2013-09-18 04:00:00,
2013-09-18 00:01:00,52.0,45.1,29.23,East,90,0.0,0.0,77,0.00,,,0.00,WUHU216WMR100,2013-09-18 04:01:00,
2013-09-18 00:06:00,51.8,44.9,29.21,East,90,0.0,0.0,77,0.00,,,0.00,WUHU216WMR100,2013-09-18 04:06:00,
2013-09-18 00:11:00,51.8,44.9,29.21,East,90,0.0,1.6,77,0.00,,,0.00,WUHU216WMR100,2013-09-18 04:11:00,
2013-09-18 00:16:00,51.6,45.0,29.21,East,90,0.0,1.6,78,0.00,,,0.00,WUHU216WMR100,2013-09-18 04:16:00,
2013-09-18 00:21:00,51.6,45.3,29.23,East,90,0.0,0.0,79,0.00,,,0.00,WUHU216WMR100,2013-09-18 04:21:00,
2013-09-18 00:26:00,51.4,45.2,29.23,East,90,0.0,0.0,79,0.00,,,0.00,WUHU216WMR100,2013-09-18 04:26:00,
2013-09-18 00:31:00,51.4,45.2,29.23,East,90,0.0,0.0,79,0.00,,,0.00,WUHU216WMR100,2013-09-18 04:31:00,
2013-09-18 00:36:00,51.4,45.2,29.21,East,90,0.0,0.0,79,0.00,,,0.00,WUHU216WMR100,2013-09-18 04:36:00,
2013-09-18 00:41:00,51.3,45.4,29.21,East,90,0.0,0.0,80,0.00,,,0.00,WUHU216WMR100,2013-09-18 04:41:00,
2013-09-18 00:46:00,51.3,45.4,29.21,East,90,0.0,0.0,80,0.00,,,0.00,WUHU216WMR100,2013-09-18 04:46:00,
2013-09-18 00:51:00,51.1,45.2,29.21,East,90,0.0,0.0,80,0.00,,,0.00,WUHU216WMR100,2013-09-18 04:51:00,
2013-09-18 00:57:00,51.1,45.2,29.21,East,90,0.0,0.0,80,0.00,,,0.00,WUHU216WMR100,2013-09-18 04:57:00,
2013-09-18 01:02:00,50.9,45.0,29.21,East,90,0.0,0.0,80,0.00,,,0.00,WUHU216WMR100,2013-09-18 05:02:00,
2013-09-18 01:07:00,50.7,45.1,29.21,East,90,0.0,0.0,81,0.00,,,0.00,WUHU216WMR100,2013-09-18 05:07:00,
2013-09-18 01:12:00,50.5,44.9,29.21,East,90,0.0,0.0,81,0.00,,,0.00,WUHU216WMR100,2013-09-18 05:12:00,
2013-09-18 01:17:00,50.4,44.8,29.21,East,90,0.0,0.0,81,0.00,,,0.00,WUHU216WMR100,2013-09-18 05:17:00,
2013-09-18 01:22:00,50.4,45.1,29.21,East,90,0.0,0.0,82,0.00,,,0.00,WUHU216WMR100,2013-09-18 05:22:00,
2013-09-18 01:27:00,50.4,45.1,29.21,East,90,0.0,0.0,82,0.00,,,0.00,WUHU216WMR100,2013-09-18 05:27:00,
2013-09-18 01:31:00,50.2,44.6,29.21,East,90,0.0,0.0,81,0.00,,,0.00,WUHU216WMR100,2013-09-18 05:31:00,
2013-09-18 01:36:00,50.2,44.9,29.21,East,90,0.0,0.0,82,0.00,,,0.00,WUHU216WMR100,2013-09-18 05:36:00,
2013-09-18 01:41:00,50.0,44.7,29.21,East,90,0.0,0.0,82,0.00,,,0.00,WUHU216WMR100,2013-09-18 05:41:00,
2013-09-18 01:46:00,50.0,44.7,29.21,East,90,0.0,0.0,82,0.00,,,0.00,WUHU216WMR100,2013-09-18 05:46:00,
2013-09-18 01:51:00,50.0,44.7,29.21,East,90,0.0,0.0,82,0.00,,,0.00,WUHU216WMR100,2013-09-18 05:51:00,
2013-09-18 01:56:00,50.2,45.2,29.21,East,90,0.0,0.0,83,0.00,,,0.00,WUHU216WMR100,2013-09-18 05:56:00,
2013-09-18 02:02:00,50.0,45.0,29.21,East,90,0.0,0.0,83,0.00,,,0.00,WUHU216WMR100,2013-09-18 06:02:00,
2013-09-18 02:07:00,49.8,44.9,29.21,East,90,0.0,0.0,83,0.00,,,0.00,WUHU216WMR100,2013-09-18 06:07:00,
2013-09-18 02:13:00,50.0,45.0,29.21,East,90,0.0,0.0,83,0.00,,,0.00,WUHU216WMR100,2013-09-18 06:13:00,
2013-09-18 02:18:00,49.8,44.9,29.21,East,90,0.0,0.0,83,0.00,,,0.00,WUHU216WMR100,2013-09-18 06:18:00,
2013-09-18 02:23:00,49.6,44.7,29.21,East,90,0.0,0.0,83,0.00,,,0.00,WUHU216WMR100,2013-09-18 06:23:00,
2013-09-18 02:28:00,49.5,44.6,29.21,East,90,0.0,0.0,83,0.00,,,0.00,WUHU216WMR100,2013-09-18 06:28:00,
2013-09-18 02:33:00,49.5,44.6,29.21,East,90,0.0,0.0,83,0.00,,,0.00,WUHU216WMR100,2013-09-18 06:33:00,
2013-09-18 02:38:00,49.5,44.6,29.21,East,90,0.0,0.0,83,0.00,,,0.00,WUHU216WMR100,2013-09-18 06:38:00,
2013-09-18 02:43:00,49.5,44.9,29.21,East,90,0.0,0.0,84,0.00,,,0.00,WUHU216WMR100,2013-09-18 06:43:00,
2013-09-18 02:48:00,49.3,44.7,29.21,East,90,0.0,0.0,84,0.00,,,0.00,WUHU216WMR100,2013-09-18 06:48:00,
2013-09-18 02:53:00,49.1,44.5,29.21,East,90,0.0,0.0,84,0.00,,,0.00,WUHU216WMR100,2013-09-18 06:53:00,
2013-09-18 02:58:00,48.9,44.3,29.21,East,90,0.0,0.0,84,0.00,,,0.00,WUHU216WMR100,2013-09-18 06:58:00,
2013-09-18 03:03:00,48.9,44.3,29.21,East,90,0.0,0.0,84,0.00,,,0.00,WUHU216WMR100,2013-09-18 07:03:00,
2013-09-18 03:08:00,48.9,44.3,29.21,East,90,0.0,0.0,84,0.00,,,0.00,WUHU216WMR100,2013-09-18 07:08:00,
2013-09-18 03:13:00,48.9,44.3,29.21,East,90,0.0,0.0,84,0.00,,,0.00,WUHU216WMR100,2013-09-18 07:13:00,
2013-09-18 03:18:00,48.9,44.3,29.21,East,90,0.0,0.0,84,0.00,,,0.00,WUHU216WMR100,2013-09-18 07:18:00,
2013-09-18 03:23:00,48.7,44.1,29.21,East,90,0.0,0.0,84,0.00,,,0.00,WUHU216WMR100,2013-09-18 07:23:00,
2013-09-18 03:28:00,48.6,44.0,29.21,East,90,0.0,0.0,84,0.00,,,0.00,WUHU216WMR100,2013-09-18 07:28:00,
2013-09-18 03:33:00,48.6,44.0,29.18,East,90,0.0,0.0,84,0.00,,,0.00,WUHU216WMR100,2013-09-18 07:33:00,
2013-09-18 03:38:00,48.2,43.6,29.18,East,90,0.0,0.0,84,0.00,,,0.00,WUHU216WMR100,2013-09-18 07:38:00,
2013-09-18 03:43:00,48.2,43.9,29.18,East,90,0.0,0.0,85,0.00,,,0.00,WUHU216WMR100,2013-09-18 07:43:00,
2013-09-18 03:48:00,48.0,43.7,29.21,East,90,0.0,0.0,85,0.00,,,0.00,WUHU216WMR100,2013-09-18 07:48:00,
2013-09-18 03:53:00,48.0,43.7,29.21,East,90,0.0,0.0,85,0.00,,,0.00,WUHU216WMR100,2013-09-18 07:53:00,
2013-09-18 03:58:00,47.8,43.5,29.21,East,90,0.0,0.0,85,0.00,,,0.00,WUHU216WMR100,2013-09-18 07:58:00,
2013-09-18 04:04:00,47.8,43.5,29.18,East,90,0.0,0.0,85,0.00,,,0.00,WUHU216WMR100,2013-09-18 08:04:00,
2013-09-18 04:09:00,47.8,43.5,29.18,East,90,0.0,0.0,85,0.00,,,0.00,WUHU216WMR100,2013-09-18 08:09:00,
2013-09-18 04:14:00,47.7,43.4,29.18,East,90,0.0,0.0,85,0.00,,,0.00,WUHU216WMR100,2013-09-18 08:14:00,
2013-09-18 04:19:00,47.8,43.5,29.18,East,90,0.0,0.0,85,0.00,,,0.00,WUHU216WMR100,2013-09-18 08:19:00,
2013-09-18 04:24:00,47.8,43.8,29.18,East,90,0.0,0.0,86,0.00,,,0.00,WUHU216WMR100,2013-09-18 08:24:00,
2013-09-18 04:30:00,47.5,43.5,29.18,East,90,0.0,0.0,86,0.00,,,0.00,WUHU216WMR100,2013-09-18 08:30:00,
2013-09-18 04:35:00,47.5,43.5,29.18,East,90,0.0,0.0,86,0.00,,,0.00,WUHU216WMR100,2013-09-18 08:35:00,
2013-09-18 04:41:00,47.5,43.5,29.18,East,90,0.0,0.0,86,0.00,,,0.00,WUHU216WMR100,2013-09-18 08:41:00,
2013-09-18 04:46:00,47.5,43.5,29.18,East,90,0.0,0.0,86,0.00,,,0.00,WUHU216WMR100,2013-09-18 08:46:00,
2013-09-18 04:51:00,47.3,43.3,29.18,East,90,0.0,0.0,86,0.00,,,0.00,WUHU216WMR100,2013-09-18 08:51:00,
2013-09-18 04:56:00,47.3,43.3,29.18,East,90,0.0,0.0,86,0.00,,,0.00,WUHU216WMR100,2013-09-18 08:56:00,
2013-09-18 05:01:00,47.5,43.5,29.18,East,90,0.0,0.0,86,0.00,,,0.00,WUHU216WMR100,2013-09-18 09:01:00,
2013-09-18 05:06:00,47.3,43.3,29.18,East,90,0.0,0.0,86,0.00,,,0.00,WUHU216WMR100,2013-09-18 09:06:00,
2013-09-18 05:11:00,47.3,43.3,29.18,East,90,0.0,0.0,86,0.00,,,0.00,WUHU216WMR100,2013-09-18 09:11:00,
2013-09-18 05:16:00,47.5,43.5,29.18,East,90,0.0,0.0,86,0.00,,,0.00,WUHU216WMR100,2013-09-18 09:16:00,
2013-09-18 05:21:00,47.3,43.6,29.18,East,90,0.0,0.0,87,0.00,,,0.00,WUHU216WMR100,2013-09-18 09:21:00,
2013-09-18 05:26:00,47.3,43.3,29.18,East,90,0.0,0.0,86,0.00,,,0.00,WUHU216WMR100,2013-09-18 09:26:00,
2013-09-18 05:31:00,47.3,43.6,29.18,East,90,0.0,0.0,87,0.00,,,0.00,WUHU216WMR100,2013-09-18 09:31:00,
2013-09-18 05:36:00,47.1,43.1,29.18,East,90,0.0,0.0,86,0.00,,,0.00,WUHU216WMR100,2013-09-18 09:36:00,
2013-09-18 05:41:00,47.1,43.1,29.18,East,90,0.0,0.0,86,0.00,,,0.00,WUHU216WMR100,2013-09-18 09:41:00,
2013-09-18 05:46:00,47.1,43.1,29.18,East,90,0.0,0.0,86,0.00,,,0.00,WUHU216WMR100,2013-09-18 09:46:00,
2013-09-18 05:51:00,46.9,42.9,29.18,East,90,0.0,0.0,86,0.00,,,0.00,WUHU216WMR100,2013-09-18 09:51:00,
2013-09-18 05:56:00,46.8,42.8,29.18,East,90,0.0,0.0,86,0.00,,,0.00,WUHU216WMR100,2013-09-18 09:56:00,
2013-09-18 06:01:00,47.1,43.1,29.18,East,90,0.0,0.0,86,0.00,,,0.00,WUHU216WMR100,2013-09-18 10:01:00,
2013-09-18 06:06:00,47.1,43.1,29.18,East,90,0.0,0.0,86,0.00,,,0.00,WUHU216WMR100,2013-09-18 10:06:00,
2013-09-18 06:11:00,47.1,43.1,29.18,East,90,0.0,0.0,86,0.00,,,0.00,WUHU216WMR100,2013-09-18 10:11:00,
2013-09-18 06:16:00,46.9,42.9,29.18,East,90,0.0,0.0,86,0.00,,,0.00,WUHU216WMR100,2013-09-18 10:16:00,
2013-09-18 06:21:00,46.9,43.2,29.18,East,90,0.0,0.0,87,0.00,,,0.00,WUHU216WMR100,2013-09-18 10:21:00,
2013-09-18 06:26:00,47.1,43.4,29.18,East,90,0.0,0.0,87,0.00,,,0.00,WUHU216WMR100,2013-09-18 10:26:00,
2013-09-18 06:31:00,47.1,43.4,29.18,East,90,0.0,0.0,87,0.00,,,0.00,WUHU216WMR100,2013-09-18 10:31:00,
2013-09-18 06:36:00,47.1,43.4,29.18,East,90,0.0,0.0,87,0.00,,,0.00,WUHU216WMR100,2013-09-18 10:36:00,
2013-09-18 06:42:00,47.3,43.6,29.18,East,90,0.0,0.0,87,0.00,,,0.00,WUHU216WMR100,2013-09-18 10:42:00,
2013-09-18 06:47:00,47.3,43.6,29.18,East,90,0.0,0.0,87,0.00,,,0.00,WUHU216WMR100,2013-09-18 10:47:00,
2013-09-18 06:52:00,47.3,43.9,29.18,East,90,0.0,0.0,88,0.00,,,0.00,WUHU216WMR100,2013-09-18 10:52:00,
2013-09-18 06:57:00,47.3,43.6,29.18,East,90,0.0,0.0,87,0.00,,,0.00,WUHU216WMR100,2013-09-18 10:57:00,
2013-09-18 07:02:00,47.3,43.9,29.18,East,90,0.0,0.0,88,0.00,,,0.00,WUHU216WMR100,2013-09-18 11:02:00,
2013-09-18 07:07:00,47.3,43.9,29.18,East,90,0.0,0.0,88,0.00,,,0.00,WUHU216WMR100,2013-09-18 11:07:00,
2013-09-18 07:12:00,47.3,43.9,29.18,East,90,0.0,0.0,88,0.00,,,0.00,WUHU216WMR100,2013-09-18 11:12:00,
2013-09-18 07:17:00,47.3,43.9,29.18,East,90,0.0,0.0,88,0.00,,,0.00,WUHU216WMR100,2013-09-18 11:17:00,
2013-09-18 07:22:00,47.3,43.9,29.21,East,90,0.0,0.0,88,0.00,,,0.00,WUHU216WMR100,2013-09-18 11:22:00,
2013-09-18 07:27:00,47.3,43.6,29.21,East,90,0.0,0.0,87,0.00,,,0.00,WUHU216WMR100,2013-09-18 11:27:00,
2013-09-18 07:32:00,47.5,44.1,29.21,East,90,0.0,0.0,88,0.00,,,0.00,WUHU216WMR100,2013-09-18 11:32:00,
2013-09-18 07:37:00,47.8,44.1,29.18,East,90,0.0,0.0,87,0.00,,,0.00,WUHU216WMR100,2013-09-18 11:37:00,
2013-09-18 07:42:00,48.0,44.6,29.18,East,90,0.0,0.0,88,0.00,,,0.00,WUHU216WMR100,2013-09-18 11:42:00,
2013-09-18 07:47:00,48.6,45.2,29.18,East,90,0.0,0.0,88,0.00,,,0.00,WUHU216WMR100,2013-09-18 11:47:00,
2013-09-18 07:52:00,49.1,46.0,29.18,East,90,0.0,0.0,89,0.00,,,0.00,WUHU216WMR100,2013-09-18 11:52:00,
2013-09-18 07:57:00,49.5,46.1,29.18,East,90,0.0,0.0,88,0.00,,,0.00,WUHU216WMR100,2013-09-18 11:57:00,
2013-09-18 08:02:00,49.6,46.2,29.18,East,90,0.0,0.0,88,0.00,,,0.00,WUHU216WMR100,2013-09-18 12:02:00,
2013-09-18 08:07:00,50.0,46.6,29.18,East,90,0.0,0.0,88,0.00,,,0.00,WUHU216WMR100,2013-09-18 12:07:00,
2013-09-18 08:12:00,50.0,46.6,29.18,East,90,0.0,0.0,88,0.00,,,0.00,WUHU216WMR100,2013-09-18 12:12:00,
2013-09-18 08:17:00,50.0,46.6,29.18,East,90,0.0,2.0,88,0.00,,,0.00,WUHU216WMR100,2013-09-18 12:17:00,
2013-09-18 08:22:00,51.4,47.9,29.18,East,90,0.7,2.0,88,0.00,,,0.00,WUHU216WMR100,2013-09-18 12:22:00,
2013-09-18 08:27:00,52.0,48.2,29.18,East,90,0.0,2.0,87,0.00,,,0.00,WUHU216WMR100,2013-09-18 12:27:00,
2013-09-18 08:32:00,52.3,48.5,29.18,East,90,0.0,1.6,87,0.00,,,0.00,WUHU216WMR100,2013-09-18 12:32:00,
2013-09-18 08:37:00,52.3,48.2,29.18,East,90,1.2,1.6,86,0.00,,,0.00,WUHU216WMR100,2013-09-18 12:37:00,
2013-09-18 08:42:00,52.3,48.2,29.18,East,90,0.9,2.5,86,0.00,,,0.00,WUHU216WMR100,2013-09-18 12:42:00,
2013-09-18 08:48:00,53.8,49.7,29.18,East,90,0.0,2.5,86,0.00,,,0.00,WUHU216WMR100,2013-09-18 12:48:00,
2013-09-18 08:53:00,54.7,50.6,29.18,NNE,22,1.3,2.2,86,0.00,,,0.00,WUHU216WMR100,2013-09-18 12:53:00,
2013-09-18 09:00:00,56.3,51.8,29.18,NE,45,1.9,3.1,85,0.00,,,0.00,WUHU216WMR100,2013-09-18 13:00:00,
2013-09-18 09:05:00,56.1,51.3,29.21,ESE,112,0.9,3.1,84,0.00,,,0.00,WUHU216WMR100,2013-09-18 13:05:00,
2013-09-18 09:10:00,56.3,51.5,29.21,ENE,67,1.1,2.7,84,0.00,,,0.00,WUHU216WMR100,2013-09-18 13:10:00,
2013-09-18 09:15:00,56.7,51.6,29.21,ESE,112,0.0,2.5,83,0.00,,,0.00,WUHU216WMR100,2013-09-18 13:15:00,
2013-09-18 09:20:00,57.4,52.0,29.18,NE,45,1.3,2.2,82,0.00,,,0.00,WUHU216WMR100,2013-09-18 13:20:00,
2013-09-18 09:25:00,57.6,51.9,29.18,SE,135,1.3,2.2,81,0.00,,,0.00,WUHU216WMR100,2013-09-18 13:25:00,
2013-09-18 09:30:00,58.8,52.7,29.18,SSW,202,2.0,2.7,80,0.00,,,0.00,WUHU216WMR100,2013-09-18 13:30:00,
2013-09-18 09:35:00,58.8,52.7,29.18,ESE,112,0.9,2.7,80,0.00,,,0.00,WUHU216WMR100,2013-09-18 13:35:00,
2013-09-18 09:40:00,58.8,52.7,29.18,NNE,22,0.8,2.2,80,0.00,,,0.00,WUHU216WMR100,2013-09-18 13:40:00,
2013-09-18 09:45:00,61.2,51.1,29.18,NNE,22,0.9,2.2,69,0.00,,,0.00,WUHU216WMR100,2013-09-18 13:45:00,
2013-09-18 09:50:00,61.9,50.6,29.18,NNE,22,1.6,2.7,66,0.00,,,0.00,WUHU216WMR100,2013-09-18 13:50:00,
2013-09-18 09:55:00,63.5,51.7,29.18,NNE,22,0.1,2.7,65,0.00,,,0.00,WUHU216WMR100,2013-09-18 13:55:00,
2013-09-18 10:00:00,64.0,48.1,29.18,WSW,247,0.1,2.9,56,0.00,,,0.00,WUHU216WMR100,2013-09-18 14:00:00,
2013-09-18 10:05:00,64.6,47.7,29.21,ESE,107,2.4,3.4,54,0.00,,,0.00,WUHU216WMR100,2013-09-18 14:05:00,
2013-09-18 10:10:00,65.7,48.2,29.21,ENE,67,0.0,3.4,53,0.00,,,0.00,WUHU216WMR100,2013-09-18 14:10:00,
2013-09-18 10:15:00,65.8,46.1,29.21,ENE,70,1.0,3.4,49,0.00,,,0.00,WUHU216WMR100,2013-09-18 14:15:00,
2013-09-18 10:20:00,66.7,45.2,29.18,South,180,1.1,3.4,46,0.00,,,0.00,WUHU216WMR100,2013-09-18 14:20:00,
2013-09-18 10:25:00,68.9,47.2,29.18,North,0,2.0,2.9,46,0.00,,,0.00,WUHU216WMR100,2013-09-18 14:25:00,
2013-09-18 10:30:00,68.7,45.8,29.18,South,180,2.5,3.6,44,0.00,,,0.00,WUHU216WMR100,2013-09-18 14:30:00,
2013-09-18 10:35:00,67.8,44.4,29.18,South,180,2.0,3.6,43,0.00,,,0.00,WUHU216WMR100,2013-09-18 14:35:00,
2013-09-18 10:40:00,67.5,43.5,29.18,SSE,157,1.6,3.1,42,0.00,,,0.00,WUHU216WMR100,2013-09-18 14:40:00,
2013-09-18 10:45:00,66.9,43.0,29.18,SE,135,2.0,4.0,42,0.00,,,0.00,WUHU216WMR100,2013-09-18 14:45:00,
2013-09-18 10:50:00,66.9,43.0,29.21,SSW,202,1.6,4.0,42,0.00,,,0.00,WUHU216WMR100,2013-09-18 14:50:00,
2013-09-18 10:55:00,67.5,44.1,29.21,East,81,1.8,3.1,43,0.00,,,0.00,WUHU216WMR100,2013-09-18 14:55:00,
2013-09-18 11:00:00,67.5,44.1,29.21,East,90,2.0,3.1,43,0.00,,,0.00,WUHU216WMR100,2013-09-18 15:00:00,
2013-09-18 11:05:00,67.5,44.1,29.18,SE,135,1.6,3.4,43,0.00,,,0.00,WUHU216WMR100,2013-09-18 15:05:00,
2013-09-18 11:10:00,67.5,44.1,29.18,WSW,247,2.0,3.4,43,0.00,,,0.00,WUHU216WMR100,2013-09-18 15:10:00,
2013-09-18 11:15:00,70.3,44.7,29.18,SSW,202,0.8,2.9,40,0.00,,,0.00,WUHU216WMR100,2013-09-18 15:15:00,
2013-09-18 11:20:00,70.9,44.6,29.18,WSW,247,1.6,2.9,39,0.00,,,0.00,WUHU216WMR100,2013-09-18 15:20:00,
2013-09-18 11:25:00,70.0,43.1,29.18,WSW,247,1.0,2.9,38,0.00,,,0.00,WUHU216WMR100,2013-09-18 15:25:00,
2013-09-18 11:30:00,70.0,43.1,29.18,East,93,2.0,3.6,38,0.00,,,0.00,WUHU216WMR100,2013-09-18 15:30:00,
2013-09-18 11:35:00,70.0,43.1,29.18,SSE,157,2.2,3.6,38,0.00,,,0.00,WUHU216WMR100,2013-09-18 15:35:00,
2013-09-18 11:40:00,70.0,43.1,29.18,ENE,67,1.1,3.1,38,0.00,,,0.00,WUHU216WMR100,2013-09-18 15:40:00,
2013-09-18 11:45:00,70.0,43.1,29.18,WNW,294,2.3,4.7,38,0.00,,,0.00,WUHU216WMR100,2013-09-18 15:45:00,
2013-09-18 11:51:00,74.8,43.6,29.18,ESE,112,2.2,4.7,33,0.00,,,0.00,WUHU216WMR100,2013-09-18 15:51:00,
2013-09-18 11:56:00,75.6,44.3,29.18,ESE,112,1.3,3.4,33,0.00,,,0.00,WUHU216WMR100,2013-09-18 15:56:00,
2013-09-18 12:01:00,75.7,42.7,29.18,ENE,67,1.4,3.8,31,0.00,,,0.00,WUHU216WMR100,2013-09-18 16:01:00,
2013-09-18 12:06:00,75.7,42.7,29.18,WSW,247,2.0,3.8,31,0.00,,,0.00,WUHU216WMR100,2013-09-18 16:06:00,
2013-09-18 12:11:00,75.7,42.7,29.18,SSW,202,1.3,4.3,31,0.00,,,0.00,WUHU216WMR100,2013-09-18 16:11:00,
2013-09-18 12:17:00,77.4,44.2,29.18,WSW,247,2.3,4.3,31,0.00,,,0.00,WUHU216WMR100,2013-09-18 16:17:00,
2013-09-18 12:22:00,77.4,44.2,29.18,WSW,247,3.4,4.9,31,0.00,,,0.00,WUHU216WMR100,2013-09-18 16:22:00,
2013-09-18 12:27:00,77.4,44.2,29.18,WSW,247,1.2,4.9,31,0.00,,,0.00,WUHU216WMR100,2013-09-18 16:27:00,
2013-09-18 12:32:00,78.8,44.6,29.18,WSW,247,2.0,3.4,30,0.00,,,0.00,WUHU216WMR100,2013-09-18 16:32:00,
2013-09-18 12:37:00,78.8,44.6,29.18,WSW,247,2.0,4.3,30,0.00,,,0.00,WUHU216WMR100,2013-09-18 16:37:00,
2013-09-18 12:42:00,77.7,43.6,29.18,WSW,247,2.2,4.3,30,0.00,,,0.00,WUHU216WMR100,2013-09-18 16:42:00,
2013-09-18 12:47:00,77.0,43.0,29.18,NNE,22,2.0,4.0,30,0.00,,,0.00,WUHU216WMR100,2013-09-18 16:47:00,
2013-09-18 12:52:00,76.8,43.7,29.18,WSW,247,3.8,6.3,31,0.00,,,0.00,WUHU216WMR100,2013-09-18 16:52:00,
2013-09-18 12:57:00,76.8,43.7,29.18,WSW,247,2.8,6.3,31,0.00,,,0.00,WUHU216WMR100,2013-09-18 16:57:00,
2013-09-18 13:02:00,76.8,43.7,29.15,WSW,247,2.1,3.6,31,0.00,,,0.00,WUHU216WMR100,2013-09-18 17:02:00,
2013-09-18 13:07:00,77.0,43.0,29.15,SW,227,3.2,4.3,30,0.00,,,0.00,WUHU216WMR100,2013-09-18 17:07:00,
2013-09-18 13:12:00,77.0,43.0,29.15,South,180,1.8,4.3,30,0.00,,,0.00,WUHU216WMR100,2013-09-18 17:12:00,
2013-09-18 13:19:00,77.0,43.0,29.15,West,270,2.2,3.8,30,0.00,,,0.00,WUHU216WMR100,2013-09-18 17:19:00,
2013-09-18 13:24:00,77.0,43.0,29.15,SSE,157,1.3,3.4,30,0.00,,,0.00,WUHU216WMR100,2013-09-18 17:24:00,
2013-09-18 13:30:00,77.0,43.0,29.15,SSE,157,0.9,3.4,30,0.00,,,0.00,WUHU216WMR100,2013-09-18 17:30:00,
2013-09-18 13:35:00,77.0,43.0,29.18,ESE,112,1.1,3.8,30,0.00,,,0.00,WUHU216WMR100,2013-09-18 17:35:00,
2013-09-18 13:40:00,77.0,43.0,29.18,SSW,202,0.9,3.8,30,0.00,,,0.00,WUHU216WMR100,2013-09-18 17:40:00,
2013-09-18 13:45:00,77.0,43.0,29.18,ENE,67,1.1,3.8,30,0.00,,,0.00,WUHU216WMR100,2013-09-18 17:45:00,
2013-09-18 13:50:00,77.0,43.0,29.15,SSE,166,2.3,4.0,30,0.00,,,0.00,WUHU216WMR100,2013-09-18 17:50:00,
2013-09-18 13:55:00,77.0,43.0,29.15,SSW,202,1.6,4.0,30,0.00,,,0.00,WUHU216WMR100,2013-09-18 17:55:00,
2013-09-18 14:00:00,77.0,43.0,29.15,SSE,157,1.3,3.6,30,0.00,,,0.00,WUHU216WMR100,2013-09-18 18:00:00,
2013-09-18 14:05:00,77.0,43.0,29.15,SSW,202,3.4,5.4,30,0.00,,,0.00,WUHU216WMR100,2013-09-18 18:05:00,
2013-09-18 14:10:00,77.0,43.0,29.15,SW,221,3.0,5.4,30,0.00,,,0.00,WUHU216WMR100,2013-09-18 18:10:00,
2013-09-18 14:15:00,80.4,46.0,29.15,SSW,212,2.6,6.0,30,0.00,,,0.00,WUHU216WMR100,2013-09-18 18:15:00,
2013-09-18 14:21:00,81.0,45.6,29.15,WSW,240,2.9,6.0,29,0.00,,,0.00,WUHU216WMR100,2013-09-18 18:21:00,
2013-09-18 14:26:00,81.0,45.6,29.15,WSW,247,2.0,6.0,29,0.00,,,0.00,WUHU216WMR100,2013-09-18 18:26:00,
2013-09-18 14:31:00,81.0,45.6,29.15,NW,315,1.6,4.0,29,0.00,,,0.00,WUHU216WMR100,2013-09-18 18:31:00,
2013-09-18 14:36:00,81.9,45.5,29.15,West,270,2.7,4.0,28,0.00,,,0.00,WUHU216WMR100,2013-09-18 18:36:00,
2013-09-18 14:41:00,81.9,45.5,29.15,NE,45,2.0,3.6,28,0.00,,,0.00,WUHU216WMR100,2013-09-18 18:41:00,
2013-09-18 14:46:00,80.8,44.5,29.15,South,181,2.6,4.7,28,0.00,,,0.00,WUHU216WMR100,2013-09-18 18:46:00,
2013-09-18 14:51:00,80.6,44.3,29.12,WSW,247,3.4,4.7,28,0.00,,,0.00,WUHU216WMR100,2013-09-18 18:51:00,
2013-09-18 14:56:00,80.6,44.3,29.12,SSW,202,2.9,4.7,28,0.00,,,0.00,WUHU216WMR100,2013-09-18 18:56:00,
2013-09-18 15:01:00,83.5,43.9,29.12,South,171,3.0,4.0,25,0.00,,,0.00,WUHU216WMR100,2013-09-18 19:01:00,
2013-09-18 15:06:00,82.6,42.1,29.12,SSW,204,3.5,4.3,24,0.00,,,0.00,WUHU216WMR100,2013-09-18 19:06:00,
2013-09-18 15:11:00,82.2,42.8,29.12,East,90,2.0,4.3,25,0.00,,,0.00,WUHU216WMR100,2013-09-18 19:11:00,
2013-09-18 15:16:00,81.5,42.2,29.12,NW,315,2.0,4.9,25,0.00,,,0.00,WUHU216WMR100,2013-09-18 19:16:00,
2013-09-18 15:21:00,81.5,44.2,29.12,WNW,292,1.9,6.5,27,0.00,,,0.00,WUHU216WMR100,2013-09-18 19:21:00,
2013-09-18 15:26:00,81.5,44.2,29.12,ESE,109,3.7,6.5,27,0.00,,,0.00,WUHU216WMR100,2013-09-18 19:26:00,
2013-09-18 15:31:00,81.5,44.2,29.12,SSE,157,3.4,6.0,27,0.00,,,0.00,WUHU216WMR100,2013-09-18 19:31:00,
2013-09-18 15:36:00,81.5,44.2,29.12,SSE,157,2.7,4.0,27,0.00,,,0.00,WUHU216WMR100,2013-09-18 19:36:00,
2013-09-18 15:41:00,81.5,44.2,29.12,East,90,2.7,5.6,27,0.00,,,0.00,WUHU216WMR100,2013-09-18 19:41:00,
2013-09-18 15:46:00,81.1,42.9,29.12,SSW,209,3.3,5.6,26,0.00,,,0.00,WUHU216WMR100,2013-09-18 19:46:00,
2013-09-18 15:51:00,79.3,44.1,29.12,ENE,67,2.0,4.3,29,0.00,,,0.00,WUHU216WMR100,2013-09-18 19:51:00,
2013-09-18 15:56:00,79.0,44.8,29.12,WSW,247,1.6,3.6,30,0.00,,,0.00,WUHU216WMR100,2013-09-18 19:56:00,
2013-09-18 16:01:00,79.2,44.9,29.12,SW,219,1.5,3.4,30,0.00,,,0.00,WUHU216WMR100,2013-09-18 20:01:00,
2013-09-18 16:07:00,79.5,46.1,29.12,SSW,209,2.4,4.9,31,0.00,,,0.00,WUHU216WMR100,2013-09-18 20:07:00,
2013-09-18 16:12:00,80.2,45.8,29.12,ENE,67,2.2,4.9,30,0.00,,,0.00,WUHU216WMR100,2013-09-18 20:12:00,
2013-09-18 16:17:00,80.2,45.8,29.12,SSE,157,3.1,4.9,30,0.00,,,0.00,WUHU216WMR100,2013-09-18 20:17:00,
2013-09-18 16:23:00,78.4,45.1,29.12,SW,216,2.6,4.0,31,0.00,,,0.00,WUHU216WMR100,2013-09-18 20:23:00,
2013-09-18 16:28:00,77.7,44.5,29.12,WNW,292,2.2,4.0,31,0.00,,,0.00,WUHU216WMR100,2013-09-18 20:28:00,
2013-09-18 16:33:00,76.8,44.5,29.12,West,270,2.2,4.3,32,0.00,,,0.00,WUHU216WMR100,2013-09-18 20:33:00,
2013-09-18 16:38:00,76.1,44.7,29.12,SSW,202,3.4,4.3,33,0.00,,,0.00,WUHU216WMR100,2013-09-18 20:38:00,
2013-09-18 16:43:00,76.5,45.9,29.12,SW,233,2.4,4.3,34,0.00,,,0.00,WUHU216WMR100,2013-09-18 20:43:00,
2013-09-18 16:48:00,76.8,46.1,29.12,SW,225,2.2,4.3,34,0.00,,,0.00,WUHU216WMR100,2013-09-18 20:48:00,
2013-09-18 16:53:00,76.8,46.1,29.12,SSW,202,1.6,5.8,34,0.00,,,0.00,WUHU216WMR100,2013-09-18 20:53:00,
2013-09-18 16:58:00,77.4,45.9,29.12,WSW,247,2.5,5.8,33,0.00,,,0.00,WUHU216WMR100,2013-09-18 20:58:00,
2013-09-18 17:03:00,78.3,46.7,29.12,WSW,247,2.2,4.3,33,0.00,,,0.00,WUHU216WMR100,2013-09-18 21:03:00,
2013-09-18 17:08:00,78.4,45.9,29.12,SSW,202,3.8,6.0,32,0.00,,,0.00,WUHU216WMR100,2013-09-18 21:08:00,
2013-09-18 17:13:00,79.2,45.8,29.12,NW,315,3.1,6.0,31,0.00,,,0.00,WUHU216WMR100,2013-09-18 21:13:00,
2013-09-18 17:18:00,77.9,45.5,29.12,NW,309,2.9,5.4,32,0.00,,,0.00,WUHU216WMR100,2013-09-18 21:18:00,
2013-09-18 17:23:00,77.2,44.9,29.12,South,181,3.1,4.9,32,0.00,,,0.00,WUHU216WMR100,2013-09-18 21:23:00,
2013-09-18 17:28:00,76.6,46.0,29.12,WSW,247,2.1,4.9,34,0.00,,,0.00,WUHU216WMR100,2013-09-18 21:28:00,
2013-09-18 17:33:00,75.9,45.4,29.09,South,177,2.2,4.0,34,0.00,,,0.00,WUHU216WMR100,2013-09-18 21:33:00,
2013-09-18 17:38:00,75.6,45.9,29.09,SSW,202,1.8,4.0,35,0.00,,,0.00,WUHU216WMR100,2013-09-18 21:38:00,
2013-09-18 17:43:00,76.5,46.7,29.09,SSE,157,1.6,2.9,35,0.00,,,0.00,WUHU216WMR100,2013-09-18 21:43:00,
2013-09-18 17:48:00,75.9,46.1,29.12,SW,236,2.7,4.3,35,0.00,,,0.00,WUHU216WMR100,2013-09-18 21:48:00,
2013-09-18 17:53:00,75.6,45.9,29.12,SSW,202,2.9,8.1,35,0.00,,,0.00,WUHU216WMR100,2013-09-18 21:53:00,
2013-09-18 17:58:00,74.1,45.3,29.12,SSW,202,3.1,8.1,36,0.00,,,0.00,WUHU216WMR100,2013-09-18 21:58:00,
2013-09-18 18:03:00,72.7,45.5,29.09,South,190,2.2,4.9,38,0.00,,,0.00,WUHU216WMR100,2013-09-18 22:03:00,
2013-09-18 18:08:00,72.1,46.3,29.09,South,170,3.0,4.3,40,0.00,,,0.00,WUHU216WMR100,2013-09-18 22:08:00,
2013-09-18 18:13:00,72.0,47.6,29.09,SSW,210,2.3,4.3,42,0.00,,,0.00,WUHU216WMR100,2013-09-18 22:13:00,
2013-09-18 18:18:00,72.1,47.7,29.12,WSW,247,2.0,4.0,42,0.00,,,0.00,WUHU216WMR100,2013-09-18 22:18:00,
2013-09-18 18:23:00,72.0,47.6,29.12,WSW,247,1.3,4.0,42,0.00,,,0.00,WUHU216WMR100,2013-09-18 22:23:00,
2013-09-18 18:28:00,71.6,47.9,29.12,SSE,157,1.6,3.4,43,0.00,,,0.00,WUHU216WMR100,2013-09-18 22:28:00,
2013-09-18 18:33:00,71.1,48.0,29.09,SW,232,2.7,4.3,44,0.00,,,0.00,WUHU216WMR100,2013-09-18 22:33:00,
2013-09-18 18:38:00,70.5,48.1,29.09,SSE,157,3.1,4.3,45,0.00,,,0.00,WUHU216WMR100,2013-09-18 22:38:00,
2013-09-18 18:43:00,70.2,47.8,29.09,WNW,292,1.3,3.6,45,0.00,,,0.00,WUHU216WMR100,2013-09-18 22:43:00,
2013-09-18 18:48:00,70.0,48.8,29.09,SSW,205,2.3,4.5,47,0.00,,,0.00,WUHU216WMR100,2013-09-18 22:48:00,
2013-09-18 18:53:00,69.8,48.7,29.09,West,270,1.9,4.5,47,0.00,,,0.00,WUHU216WMR100,2013-09-18 22:53:00,
2013-09-18 18:58:00,69.6,49.1,29.09,NW,315,2.0,4.0,48,0.00,,,0.00,WUHU216WMR100,2013-09-18 22:58:00,
2013-09-18 19:03:00,69.6,49.6,29.09,SW,228,2.0,3.8,49,0.00,,,0.00,WUHU216WMR100,2013-09-18 23:03:00,
2013-09-18 19:09:00,69.4,50.0,29.09,SSE,164,1.3,4.0,50,0.00,,,0.00,WUHU216WMR100,2013-09-18 23:09:00,
2013-09-18 19:14:00,69.3,49.9,29.09,South,180,2.2,2.9,50,0.00,,,0.00,WUHU216WMR100,2013-09-18 23:14:00,
2013-09-18 19:19:00,68.9,49.5,29.09,SSW,202,1.1,4.3,50,0.00,,,0.00,WUHU216WMR100,2013-09-18 23:19:00,
2013-09-18 19:24:00,68.7,49.9,29.09,SSE,157,1.6,4.3,51,0.00,,,0.00,WUHU216WMR100,2013-09-18 23:24:00,
2013-09-18 19:29:00,68.5,49.7,29.09,SW,225,0.9,2.7,51,0.00,,,0.00,WUHU216WMR100,2013-09-18 23:29:00,
2013-09-18 19:34:00,68.4,50.2,29.12,WSW,247,2.0,3.4,52,0.00,,,0.00,WUHU216WMR100,2013-09-18 23:34:00,
2013-09-18 19:39:00,68.2,50.5,29.12,ESE,112,1.1,3.4,53,0.00,,,0.00,WUHU216WMR100,2013-09-18 23:39:00,
2013-09-18 19:44:00,68.2,50.5,29.12,ESE,112,0.0,2.0,53,0.00,,,0.00,WUHU216WMR100,2013-09-18 23:44:00,
2013-09-18 19:49:00,68.0,50.3,29.09,ESE,112,1.3,2.2,53,0.00,,,0.00,WUHU216WMR100,2013-09-18 23:49:00,
2013-09-18 19:54:00,67.8,51.2,29.09,SSE,150,1.7,2.9,55,0.00,,,0.00,WUHU216WMR100,2013-09-18 23:54:00,
2013-09-18 19:59:00,67.8,51.2,29.09,SSE,157,1.6,2.9,55,0.00,,,0.00,WUHU216WMR100,2013-09-18 23:59:00,
2013-09-18 20:04:00,67.5,51.4,29.09,ESE,112,1.3,2.7,56,0.00,,,0.00,WUHU216WMR100,2013-09-19 00:04:00,
2013-09-18 20:10:00,67.1,52.0,29.09,SSE,149,1.8,2.7,58,0.00,,,0.00,WUHU216WMR100,2013-09-19 00:10:00,
2013-09-18 20:15:00,66.7,51.6,29.09,West,273,1.4,2.7,58,0.00,,,0.00,WUHU216WMR100,2013-09-19 00:15:00,
2013-09-18 20:20:00,66.6,51.5,29.09,WNW,292,0.9,2.7,58,0.00,,,0.00,WUHU216WMR100,2013-09-19 00:20:00,
2013-09-18 20:25:00,66.2,52.1,29.09,SSE,157,1.6,3.4,60,0.00,,,0.00,WUHU216WMR100,2013-09-19 00:25:00,
2013-09-18 20:30:00,66.0,52.8,29.09,SSE,157,0.9,3.4,62,0.00,,,0.00,WUHU216WMR100,2013-09-19 00:30:00,
2013-09-18 20:35:00,65.8,52.6,29.12,SSW,202,1.3,2.7,62,0.00,,,0.00,WUHU216WMR100,2013-09-19 00:35:00,
2013-09-18 20:40:00,65.7,52.9,29.12,SSE,157,1.6,3.8,63,0.00,,,0.00,WUHU216WMR100,2013-09-19 00:40:00,
2013-09-18 20:45:00,65.5,53.2,29.12,South,180,1.3,3.8,64,0.00,,,0.00,WUHU216WMR100,2013-09-19 00:45:00,
2013-09-18 20:50:00,65.3,52.5,29.12,NNW,337,0.9,2.7,63,0.00,,,0.00,WUHU216WMR100,2013-09-19 00:50:00,
2013-09-18 20:55:00,65.1,52.8,29.12,ESE,112,1.4,2.7,64,0.00,,,0.00,WUHU216WMR100,2013-09-19 00:55:00,
2013-09-18 21:00:00,64.9,52.6,29.12,ESE,112,0.0,2.7,64,0.00,,,0.00,WUHU216WMR100,2013-09-19 01:00:00,
2013-09-18 21:05:00,64.9,52.6,29.12,ESE,112,0.0,1.6,64,0.00,,,0.00,WUHU216WMR100,2013-09-19 01:05:00,
2013-09-18 21:10:00,64.9,53.0,29.12,ESE,112,0.0,1.6,65,0.00,,,0.00,WUHU216WMR100,2013-09-19 01:10:00,
2013-09-18 21:15:00,64.9,53.0,29.12,ESE,112,1.1,1.6,65,0.00,,,0.00,WUHU216WMR100,2013-09-19 01:15:00,
2013-09-18 21:20:00,64.8,53.3,29.15,SE,135,2.0,3.1,66,0.00,,,0.00,WUHU216WMR100,2013-09-19 01:20:00,
2013-09-18 21:25:00,64.8,53.7,29.15,SSE,157,1.6,3.1,67,0.00,,,0.00,WUHU216WMR100,2013-09-19 01:25:00,
2013-09-18 21:30:00,64.6,53.6,29.15,ESE,112,0.1,2.7,67,0.00,,,0.00,WUHU216WMR100,2013-09-19 01:30:00,
2013-09-18 21:35:00,64.8,54.2,29.12,East,97,1.6,2.7,68,0.00,,,0.00,WUHU216WMR100,2013-09-19 01:35:00,
2013-09-18 21:40:00,64.8,54.2,29.12,SSE,157,0.9,3.4,68,0.00,,,0.00,WUHU216WMR100,2013-09-19 01:40:00,
2013-09-18 21:45:00,64.8,54.2,29.12,ESE,112,1.3,3.4,68,0.00,,,0.00,WUHU216WMR100,2013-09-19 01:45:00,
2013-09-18 21:50:00,64.8,54.5,29.12,South,180,1.6,2.2,69,0.00,,,0.00,WUHU216WMR100,2013-09-19 01:50:00,
2013-09-18 21:55:00,64.8,54.5,29.12,WNW,292,0.8,2.5,69,0.00,,,0.00,WUHU216WMR100,2013-09-19 01:55:00,
2013-09-18 22:00:00,64.9,54.2,29.12,WSW,247,1.1,2.5,68,0.00,,,0.00,WUHU216WMR100,2013-09-19 02:00:00,
2013-09-18 22:06:00,64.9,54.6,29.12,West,270,2.0,3.6,69,0.00,,,0.00,WUHU216WMR100,2013-09-19 02:06:00,
2013-09-18 22:11:00,64.9,54.6,29.12,West,266,1.0,2.9,69,0.00,,,0.00,WUHU216WMR100,2013-09-19 02:11:00,
2013-09-18 22:16:00,64.9,54.6,29.12,ENE,67,2.2,2.9,69,0.00,,,0.00,WUHU216WMR100,2013-09-19 02:16:00,
2013-09-18 22:21:00,64.8,54.5,29.12,SSE,157,0.0,2.9,69,0.00,,,0.00,WUHU216WMR100,2013-09-19 02:21:00,
2013-09-18 22:26:00,64.8,54.9,29.12,WSW,241,2.0,6.3,70,0.00,,,0.00,WUHU216WMR100,2013-09-19 02:26:00,
2013-09-18 22:31:00,64.8,54.9,29.12,SSE,157,1.3,6.3,70,0.00,,,0.00,WUHU216WMR100,2013-09-19 02:31:00,
2013-09-18 22:36:00,64.6,55.1,29.12,WSW,253,3.1,6.5,71,0.00,,,0.00,WUHU216WMR100,2013-09-19 02:36:00,
2013-09-18 22:41:00,64.6,55.1,29.12,SSW,210,2.5,6.5,71,0.00,,,0.00,WUHU216WMR100,2013-09-19 02:41:00,
2013-09-18 22:46:00,64.6,55.1,29.12,WNW,292,1.3,5.6,71,0.00,,,0.00,WUHU216WMR100,2013-09-19 02:46:00,
2013-09-18 22:51:00,64.6,55.5,29.12,South,187,2.3,3.4,72,0.00,,,0.00,WUHU216WMR100,2013-09-19 02:51:00,
2013-09-18 22:57:00,64.4,55.3,29.12,SSW,193,1.4,3.4,72,0.00,,,0.00,WUHU216WMR100,2013-09-19 02:57:00,
2013-09-18 23:02:00,64.4,55.3,29.12,WSW,250,1.5,3.1,72,0.00,,,0.00,WUHU216WMR100,2013-09-19 03:02:00,
2013-09-18 23:09:00,64.4,55.7,29.15,SSE,156,2.2,3.8,73,0.00,,,0.00,WUHU216WMR100,2013-09-19 03:09:00,
2013-09-18 23:14:00,64.2,55.9,29.15,SE,141,1.0,3.8,74,0.00,,,0.00,WUHU216WMR100,2013-09-19 03:14:00,
2013-09-18 23:19:00,64.2,55.9,29.12,NNE,22,0.9,3.6,74,0.00,,,0.00,WUHU216WMR100,2013-09-19 03:19:00,
2013-09-18 23:24:00,64.2,56.2,29.12,South,174,2.1,3.4,75,0.00,,,0.00,WUHU216WMR100,2013-09-19 03:24:00,
2013-09-18 23:29:00,64.2,56.2,29.12,ESE,122,1.7,4.3,75,0.00,,,0.00,WUHU216WMR100,2013-09-19 03:29:00,
2013-09-18 23:34:00,64.2,56.2,29.12,SSE,157,2.0,4.3,75,0.00,,,0.00,WUHU216WMR100,2013-09-19 03:34:00,
2013-09-18 23:39:00,64.4,56.4,29.12,SW,224,2.5,3.6,75,0.00,,,0.00,WUHU216WMR100,2013-09-19 03:39:00,
2013-09-18 23:44:00,64.2,56.9,29.12,SSW,201,2.4,3.6,77,0.00,,,0.00,WUHU216WMR100,2013-09-19 03:44:00,
2013-09-18 23:50:00,64.2,56.9,29.12,SSW,202,2.9,6.3,77,0.00,,,0.00,WUHU216WMR100,2013-09-19 03:50:00,
2013-09-18 23:55:00,64.2,56.9,29.12,SW,226,2.2,6.3,77,0.00,,,0.00,WUHU216WMR100,2013-09-19 03:55:00,